When you browse on this site, cookies collect data to enhance your experience and personalize the content and advertising you see.
Visit our Privacy Policy to learn more. By continuing to use the site, you agree to this use of cookies and data.
  • In France
  • List of Countries
  • For 7 days
  • Water Temperature
  • Weather Map
  • Weather Widgets
  • user-avatar
    Login

    Hourly Weather Mendoza

    Today, 2 April, Thursday

    Time Temperature Precipitation Wind Pressure Humidity
    00:00 +15°C° 0 mm 0 mps 704 mmHg 66%
    01:00 +16°C° 0 mm 1 mps 705 mmHg 67%
    02:00 +15°C° 0 mm 1 mps 704 mmHg 68%
    03:00 +15°C° 0 mm 1 mps 704 mmHg 69%
    04:00 +14°C° 0 mm 0 mps 704 mmHg 71%
    05:00 +16°C° 0 mm 1 mps 704 mmHg 67%
    06:00 +18°C° 0 mm 1 mps 705 mmHg 62%
    07:00 +19°C° 0 mm 1 mps 705 mmHg 58%
    08:00 +19°C° 0 mm 2 mps 705 mmHg 53%
    09:00 +20°C° 0 mm 2 mps 705 mmHg 47%
    10:00 +21°C° 0 mm 2 mps 705 mmHg 41%
    11:00 +22°C° 0 mm 3 mps 704 mmHg 39%
    12:00 +24°C° 0 mm 3 mps 704 mmHg 37%
    13:00 +25°C° 0 mm 4 mps 703 mmHg 35%
    14:00 +25°C° 0 mm 4 mps 703 mmHg 35%
    15:00 +25°C° 0 mm 4 mps 702 mmHg 34%
    16:00 +25°C° 0 mm 4 mps 702 mmHg 34%
    17:00 +23°C° 0 mm 4 mps 702 mmHg 35%
    18:00 +21°C° 0 mm 3 mps 702 mmHg 37%
    19:00 +20°C° 0 mm 3 mps 702 mmHg 38%
    20:00 +19°C° 0 mm 3 mps 702 mmHg 40%
    21:00 +19°C° 0 mm 2 mps 701 mmHg 41%
    22:00 +18°C° 0 mm 2 mps 701 mmHg 42%
    23:00 +17°C° 0 mm 2 mps 701 mmHg 43%

    Tomorrow, 3 April, Friday

    Time Temperature Precipitation Wind Pressure Humidity
    00:00 +18°C° 0 mm 1 mps 700 mmHg 44%
    01:00 +16°C° 0 mm 1 mps 700 mmHg 45%
    02:00 +16°C° 0 mm 1 mps 699 mmHg 46%
    03:00 +16°C° 0 mm 1 mps 699 mmHg 46%
    04:00 +15°C° 0 mm 1 mps 698 mmHg 47%
    05:00 +16°C° 0 mm 1 mps 698 mmHg 44%
    06:00 +19°C° 0 mm 1 mps 698 mmHg 42%
    07:00 +20°C° 0 mm 1 mps 699 mmHg 39%
    08:00 +21°C° 0 mm 1 mps 698 mmHg 36%
    09:00 +23°C° 0 mm 2 mps 698 mmHg 33%
    10:00 +24°C° 0 mm 2 mps 698 mmHg 30%
    11:00 +26°C° 0 mm 3 mps 697 mmHg 28%
    12:00 +27°C° 0 mm 3 mps 697 mmHg 27%
    13:00 +28°C° 0 mm 4 mps 696 mmHg 25%
    14:00 +28°C° 0 mm 4 mps 696 mmHg 26%
    15:00 +28°C° 0 mm 4 mps 695 mmHg 26%
    16:00 +28°C° 0 mm 4 mps 695 mmHg 26%
    17:00 +27°C° 0 mm 3 mps 695 mmHg 31%
    18:00 +25°C° 0 mm 3 mps 695 mmHg 35%
    19:00 +23°C° 0 mm 2 mps 695 mmHg 40%
    20:00 +21°C° 0 mm 2 mps 695 mmHg 45%
    21:00 +21°C° 0 mm 1 mps 695 mmHg 50%
    22:00 +20°C° 0 mm 1 mps 695 mmHg 55%
    23:00 +20°C° 0 mm 1 mps 694 mmHg 56%

    Day after tomorrow, 4 April, Saturday

    Time Temperature Precipitation Wind Pressure Humidity
    00:00 +19°C° 0 mm 1 mps 694 mmHg 57%
    01:00 +19°C° 0 mm 1 mps 694 mmHg 57%
    02:00 +18°C° 0 mm 2 mps 694 mmHg 56%
    03:00 +18°C° 0 mm 2 mps 694 mmHg 56%
    04:00 +18°C° 0 mm 2 mps 694 mmHg 55%
    05:00 +18°C° 0 mm 4 mps 695 mmHg 50%
    06:00 +19°C° 0 mm 6 mps 696 mmHg 45%
    07:00 +20°C° 0 mm 7 mps 696 mmHg 40%
    08:00 +21°C° 0 mm 7 mps 696 mmHg 38%
    09:00 +22°C° 0 mm 7 mps 697 mmHg 37%
    10:00 +24°C° 0 mm 7 mps 697 mmHg 35%
    11:00 +24°C° 0 mm 6 mps 696 mmHg 34%
    12:00 +26°C° 0 mm 5 mps 696 mmHg 32%
    13:00 +27°C° 0 mm 4 mps 695 mmHg 31%
    14:00 +26°C° 0 mm 4 mps 695 mmHg 31%
    15:00 +26°C° 0 mm 3 mps 694 mmHg 32%
    16:00 +26°C° 0 mm 3 mps 694 mmHg 33%
    17:00 +25°C° 0 mm 3 mps 694 mmHg 37%
    18:00 +23°C° 0 mm 2 mps 694 mmHg 42%
    19:00 +21°C° 0 mm 2 mps 694 mmHg 47%
    20:00 +20°C° 0 mm 2 mps 694 mmHg 51%
    21:00 +20°C° 0 mm 1 mps 694 mmHg 55%
    22:00 +20°C° 0 mm 1 mps 694 mmHg 59%
    23:00 +19°C° 0 mm 1 mps 694 mmHg 60%

    5 April, Sunday

    Time Temperature Precipitation Wind Pressure Humidity
    00:00 +19°C° 0 mm 1 mps 694 mmHg 61%
    01:00 +17°C° 0 mm 0 mps 693 mmHg 62%
    02:00 +18°C° 0 mm 1 mps 693 mmHg 63%
    03:00 +18°C° 0 mm 1 mps 693 mmHg 65%
    04:00 +18°C° 0 mm 1 mps 693 mmHg 67%
    05:00 +18°C° 0 mm 1 mps 693 mmHg 63%
    06:00 +18°C° 0 mm 2 mps 694 mmHg 60%
    07:00 +19°C° 0 mm 2 mps 694 mmHg 57%
    08:00 +20°C° 0 mm 2 mps 695 mmHg 53%
    09:00 +23°C° 0 mm 2 mps 695 mmHg 49%
    10:00 +24°C° 0 mm 2 mps 695 mmHg 45%
    11:00 +25°C° 0 mm 2 mps 695 mmHg 42%
    12:00 +26°C° 0 mm 2 mps 695 mmHg 38%
    13:00 +28°C° 0 mm 2 mps 695 mmHg 34%
    14:00 +28°C° 0 mm 3 mps 695 mmHg 33%
    15:00 +28°C° 0 mm 3 mps 696 mmHg 32%
    16:00 +28°C° 0 mm 4 mps 696 mmHg 31%
    17:00 +27°C° 0 mm 3 mps 696 mmHg 35%
    18:00 +25°C° 0 mm 2 mps 697 mmHg 39%
    19:00 +24°C° 0 mm 2 mps 698 mmHg 43%
    20:00 +23°C° 0 mm 2 mps 699 mmHg 45%
    21:00 +23°C° 0 mm 2 mps 699 mmHg 47%
    22:00 +22°C° 0 mm 3 mps 700 mmHg 49%
    23:00 +21°C° 0.1 mm 3 mps 700 mmHg 49%

    6 April, Monday

    Time Temperature Precipitation Wind Pressure Humidity
    00:00 +21°C° 0.1 mm 4 mps 701 mmHg 50%
    01:00 +20°C° 0.1 mm 5 mps 701 mmHg 51%
    02:00 +20°C° 0.2 mm 5 mps 701 mmHg 52%
    03:00 +19°C° 0.2 mm 5 mps 701 mmHg 53%
    04:00 +17°C° 0.2 mm 5 mps 702 mmHg 54%
    05:00 +17°C° 0 mm 5 mps 702 mmHg 47%
    06:00 +17°C° 0 mm 4 mps 702 mmHg 41%
    07:00 +17°C° 0 mm 4 mps 703 mmHg 34%
    08:00 +17°C° 0 mm 4 mps 703 mmHg 32%
    09:00 +18°C° 0 mm 4 mps 702 mmHg 30%
    10:00 +18°C° 0 mm 4 mps 702 mmHg 29%
    11:00 +19°C° 0 mm 4 mps 702 mmHg 27%
    12:00 +20°C° 0 mm 3 mps 702 mmHg 26%
    13:00 +21°C° 0 mm 3 mps 701 mmHg 25%
    14:00 +21°C° 0 mm 3 mps 701 mmHg 25%
    15:00 +21°C° 0 mm 3 mps 701 mmHg 25%
    16:00 +21°C° 0 mm 2 mps 700 mmHg 26%
    17:00 +20°C° 0 mm 2 mps 700 mmHg 29%
    18:00 +19°C° 0 mm 2 mps 701 mmHg 32%
    19:00 +19°C° 0 mm 1 mps 701 mmHg 35%
    20:00 +18°C° 0 mm 1 mps 701 mmHg 36%
    21:00 +17°C° 0 mm 2 mps 701 mmHg 38%
    22:00 +16°C° 0 mm 2 mps 701 mmHg 39%
    23:00 +16°C° 0 mm 2 mps 701 mmHg 42%

    7 April, Tuesday

    Time Temperature Precipitation Wind Pressure Humidity
    00:00 +15°C° 0 mm 1 mps 700 mmHg 45%
    01:00 +15°C° 0 mm 1 mps 700 mmHg 48%
    02:00 +14°C° 0 mm 1 mps 700 mmHg 49%
    03:00 +14°C° 0 mm 1 mps 699 mmHg 51%
    04:00 +14°C° 0 mm 1 mps 699 mmHg 52%
    05:00 +15°C° 0 mm 1 mps 699 mmHg 49%
    06:00 +15°C° 0 mm 1 mps 700 mmHg 46%
    07:00 +16°C° 0 mm 1 mps 700 mmHg 43%
    08:00 +19°C° 0 mm 1 mps 700 mmHg 40%
    09:00 +19°C° 0 mm 2 mps 700 mmHg 37%
    10:00 +21°C° 0 mm 2 mps 700 mmHg 34%
    11:00 +23°C° 0 mm 2 mps 700 mmHg 33%
    12:00 +24°C° 0 mm 2 mps 699 mmHg 31%
    13:00 +25°C° 0 mm 2 mps 699 mmHg 30%
    14:00 +25°C° 0 mm 2 mps 699 mmHg 30%
    15:00 +25°C° 0 mm 2 mps 699 mmHg 30%
    16:00 +25°C° 0 mm 2 mps 698 mmHg 31%
    17:00 +24°C° 0 mm 2 mps 698 mmHg 34%
    18:00 +23°C° 0 mm 2 mps 699 mmHg 38%
    19:00 +21°C° 0 mm 1 mps 699 mmHg 41%
    20:00 +21°C° 0 mm 1 mps 699 mmHg 43%
    21:00 +21°C° 0 mm 1 mps 699 mmHg 45%
    22:00 +20°C° 0 mm 1 mps 699 mmHg 46%
    23:00 +20°C° 0 mm 1 mps 699 mmHg 50%
    Show more